YBRMYPPD

Guest
Details From YBRM - Broome Intl
To YPPD - Port Hedland Intl
Flight Number -
Tags generated
Created
Modified
Stats Distance 252 nm / 468 km
Max Altitude 26,000 ft / 7,925 m
Waypoints 5
Social Downloads 0
Likes 0
Share VATSIM

Download

Looking for another format? Having issues loading an existing format? Contact us
Advertisement - Login to hide

Notes

Basic altitude profile: - Ascent Rate: 2500ft/min - Ascent Speed: 250kts - Cruise Altitude: 35000ft - Cruise Speed: 420kts - Descent Rate: 1500ft/min - Descent Speed: 250kts Options: - Use NATs: yes - Use PACOTS: yes - Use low airways: yes - Use high airways: yes

Route

YBRM BRM J93 PD YPPD

ID Type Via Altitude Latitude Longitude Leg Dist Tot Dist Heading (true) Name
O YBRM APT - 0 ft / 0 m -17.94875˚ 122.22723˚ - 0 nm - Broome Intl
BRM NDB - 100 ft / 30 m -17.94639˚ 122.23528˚ 0 nm 0 nm 73° / 73° BROOME NDB-DME
SNAPA FIX J93 (AWY-LO) 26,000 ft / 7,925 m -19.16667˚ 120.44333˚ 125 nm 126 nm 234° / 235° -
PD VOR J93 (AWY-LO) 18,000 ft / 5,486 m -20.37833˚ 118.62278˚ 126 nm 252 nm 234° / 235° PORT HEDLAND VOR-DME
O YPPD APT - 0 ft / 0 m -20.37855˚ 118.62943˚ 0 nm 252 nm 92° / 92° Port Hedland Intl

Altitude Profile

Advertisement - Login to hide

Weather


0- 5 10 15 20 25 30 35+ Temperature / ° C

Clouds and Precipitation
Forecast for 2018-04-21 18:00 UTC. Updated 3 hours ago

Ground ~20,000 ft ~40,000 ft Winds

YBRM

Details ICAO YBRM
Name Broome Intl
Region Australia
Timezone Australia/Perth (UTC+8.0)
Stats Elevation 56 ft / 17 m (AMSL)
Location -17.948745° 122.227225°
Runways 1
Magnetic Variation 1.774° E

METAR

YBRM 212000Z AUTO 23004KT 9999 // NCD 27/25 Q1010

Decode

TAF

TAF YBRM 211709Z 2118/2218 VRB05KT CAVOK FM220500 27010KT CAVOK FM221200 22006KT CAVOK

Decode

Departure Runways

ID Width Length Bearing (true) Bearing (mag) Surface Threshold Offset Overrun Length
10 148 ft / 45 m 8,325 ft / 2,537 m 105.60° 103.83° Asphalt 292 ft / 89 m 52 ft / 16 m
28 148 ft / 45 m 8,325 ft / 2,537 m 285.60° 283.83° Asphalt 666 ft / 203 m 0 ft / 0 m

YPPD

Details ICAO YPPD (PHE)
Name Port Hedland Intl
Region Australia
Timezone Australia/Perth (UTC+8.0)
Stats Elevation 33 ft / 10 m (AMSL)
Location -20.378551° 118.629429°
Runways 2
Magnetic Variation 1.251° E

METAR

YPPD 212000Z AUTO 00000KT 9999 // NCD 23/23 Q1011

Decode

TAF

TAF AMD YPPD 211709Z 2118/2218 23005KT CAVOK FM220400 31010KT CAVOK FM221200 25007KT CAVOK

Decode

Destination Runways

ID Width Length Bearing (true) Bearing (mag) Surface Threshold Offset Overrun Length
14 148 ft / 45 m 8,216 ft / 2,504 m 137.60° 136.35° Asphalt 0 ft / 0 m 0 ft / 0 m
18 59 ft / 18 m 3,292 ft / 1,003 m 2.40° 1.15° Asphalt 0 ft / 0 m 0 ft / 0 m
32 148 ft / 45 m 8,216 ft / 2,504 m 317.60° 316.35° Asphalt 0 ft / 0 m 0 ft / 0 m
36 59 ft / 18 m 3,292 ft / 1,003 m 182.40° 181.15° Asphalt 0 ft / 0 m 0 ft / 0 m

Popular Alternatives